Regional Weather Roundup
Issued by NWS

Home | Current Version | Previous Version | Text Only | Print | Product List | Glossary Off
Versions: 1 2 3 4 5 6 7 8 9 10 11 12 13 14 15 16 17 18 19 20 21 22 23 24 25 26 27 28 29 30 31 32 33 34 35 36 37 38 39 40 41 42 43 44 45 46 47 48 49 50

000
ASUS43 KOAX 301302
RWRNE

WEATHER ROUNDUP FOR NEBRASKA
NATIONAL WEATHER SERVICE OMAHA NE
800 AM CDT MON MAR 30 2015

NOTES: SATELLITE DATA IS BEING USED TO AUGMENT CLOUD COVER ABOVE
       12000 FEET.
       "FAIR" INDICATES FEW OR NO CLOUDS BELOW 12,000 FEET WITH NO
       SIGNIFICANT WEATHER AND/OR OBSTRUCTIONS TO VISIBILITY.

  * THESE STATIONS DO NOT REPORT WEATHER SUCH AS RAIN...SNOW OR FOG.

NEZ001>004-019>022-054>056-301400-
NEBRASKA PANHANDLE

CITY           SKY/WX    TMP DP  RH WIND       PRES   REMARKS
SCOTTSBLUFF    CLEAR     32  23  69 NW8       30.08R WCI  25
ALLIANCE       CLEAR     23  18  81 W7        30.05R WCI  15
CHADRON        CLEAR     33  24  69 SW6       30.05R WCI  28
KIMBALL        CLEAR     42  18  37 W13       30.08S
SIDNEY         CLEAR     39  22  50 W15       30.07S WCI  31
$$

NEZ057>060-069>072-079>082-301400-
SOUTHWEST NEBRASKA

CITY           SKY/WX    TMP DP  RH WIND       PRES   REMARKS
NORTH PLATTE   CLEAR     35  21  56 VRB3      30.08S
IMPERIAL         N/A     32  21  64 CALM      30.08S
MCCOOK         CLEAR     38  17  42 CALM      30.10R
$$

NEZ005>010-023>029-035>040-094-301400-
NORTH CENTRAL NEBRASKA

CITY           SKY/WX    TMP DP  RH WIND       PRES   REMARKS
VALENTINE      CLEAR     35  21  56 W8        30.00S WCI  29
AINSWORTH      CLEAR     44  21  40 SW14      29.99S
BROKEN BOW     CLEAR     44  15  31 SW10      30.05F
O`NEILL        PTCLDY    41  21  45 SW12      30.00F
ORD            CLEAR     41  16  36 CALM      30.05F
$$

NEZ041-046>049-061>064-073>077-083>087-301400-
SOUTH CENTRAL NEBRASKA

CITY           SKY/WX    TMP DP  RH WIND       PRES   REMARKS
GRAND ISLAND   CLEAR     45  21  38 SW12      30.10R
HASTINGS       CLEAR     43  20  39 SW10      30.10R
HEBRON         CLEAR     44  24  46 SW13      30.12F
KEARNEY *      CLEAR     45  18  33 SW8       30.10S
YORK           CLEAR     39  27  60 SW8       30.11R WCI  34
$$

NEZ011>018-030>034-042>045-301400-
NORTHEAST NEBRASKA

CITY           SKY/WX    TMP DP  RH WIND       PRES   REMARKS
NORFOLK        CLEAR     44  21  40 SW9       30.05F
ALBION         CLEAR     41  18  39 SE5       30.06F
BLAIR          CLEAR     40  26  55 S8        30.09S
COLUMBUS *     CLEAR     30  19  64 CALM      30.10S
TEKAMAH        FAIR      33  23  66 SE8       30.09S WCI  26
$$

NEZ050>053-065>068-078-088>093-301400-
SOUTHEAST NEBRASKA

CITY           SKY/WX    TMP DP  RH WIND       PRES   REMARKS
LINCOLN        CLEAR     37  28  70 CALM      30.13R
OMAHA EPPLEY   PTCLDY    38  28  67 SE9       30.11S WCI  31
FALLS CITY     PTCLDY    34  28  79 CALM      30.15R
PLATTSMOUTH    PTCLDY    43  24  47 SW6       30.11S
$$

NEZ044-045-051>053-067-301400-
OMAHA AREA

CITY           SKY/WX    TMP DP  RH WIND       PRES   REMARKS
OMAHA EPPLEY   PTCLDY    38  28  67 SE9       30.11S WCI  31
BLAIR          CLEAR     40  26  55 S8        30.09S
PLATTSMOUTH    PTCLDY    43  24  47 SW6       30.11S
$$


USA.gov is the U.S. government's official web portal to all federal, state and local government web resources and services.